Time,TemperatureF,DewpointF,PressureIn,WindDirection,WindDirectionDegrees,WindSpeedMPH,WindSpeedGustMPH,Humidity,HourlyPrecipIn,Conditions,Clouds,dailyrainin,SolarRadiationWatts/m^2,SoftwareType,DateUTC
2013-08-29 00:02:00,62.6,52.3,29.97,North,-999,3.0,5.0,69,0.00,,,0.00,0.00,VWS V14.01,2013-08-29 06:02:00,
2013-08-29 00:07:00,62.6,52.3,29.97,North,-999,5.0,6.0,69,0.00,,,0.00,0.00,VWS V14.01,2013-08-29 06:07:00,
2013-08-29 00:12:00,62.6,52.3,29.98,North,-999,4.0,6.0,69,0.00,,,0.00,0.00,VWS V14.01,2013-08-29 06:12:00,
2013-08-29 00:17:00,62.4,52.1,29.98,North,-999,4.0,6.0,69,0.00,,,0.00,0.00,VWS V14.01,2013-08-29 06:17:00,
2013-08-29 00:21:00,62.0,51.7,29.98,North,-999,5.0,5.0,69,0.00,,,0.00,0.00,VWS V14.01,2013-08-29 06:21:00,
2013-08-29 00:26:00,61.5,52.0,29.98,North,-999,5.0,6.0,71,0.00,,,0.00,0.00,VWS V14.01,2013-08-29 06:26:00,
2013-08-29 00:31:00,61.8,52.3,29.98,North,-999,5.0,6.0,71,0.00,,,0.00,0.00,VWS V14.01,2013-08-29 06:31:00,
2013-08-29 00:36:00,61.6,51.7,29.98,North,-999,5.0,6.0,70,0.00,,,0.00,0.00,VWS V14.01,2013-08-29 06:36:00,
2013-08-29 00:41:00,61.6,51.3,29.98,North,-999,6.0,6.0,69,0.00,,,0.00,0.00,VWS V14.01,2013-08-29 06:41:00,
2013-08-29 00:46:00,65.0,52.1,29.98,North,-999,6.0,7.0,63,0.00,,,0.00,0.00,VWS V14.01,2013-08-29 06:46:00,
2013-08-29 00:51:00,67.0,52.2,29.98,North,-999,4.0,7.0,59,0.00,,,0.00,0.00,VWS V14.01,2013-08-29 06:51:00,
2013-08-29 00:56:00,64.2,50.5,29.98,North,-999,6.0,7.0,61,0.00,,,0.00,0.00,VWS V14.01,2013-08-29 06:56:00,
2013-08-29 01:01:00,61.4,50.8,29.98,North,-999,4.0,6.0,68,0.00,,,0.00,0.00,VWS V14.01,2013-08-29 07:01:00,
2013-08-29 01:06:00,60.4,51.0,29.99,North,-999,3.0,6.0,71,0.00,,,0.00,0.00,VWS V14.01,2013-08-29 07:06:00,
2013-08-29 01:11:00,60.4,51.3,29.99,North,-999,0.0,3.0,72,0.00,,,0.00,0.00,VWS V14.01,2013-08-29 07:11:00,
2013-08-29 01:16:00,60.9,51.5,29.99,North,-999,0.0,3.0,71,0.00,,,0.00,0.00,VWS V14.01,2013-08-29 07:16:00,
2013-08-29 01:21:00,61.7,51.0,29.99,North,-999,0.0,0.0,68,0.00,,,0.00,0.00,VWS V14.01,2013-08-29 07:21:00,
2013-08-29 01:26:00,62.2,51.1,29.99,North,-999,0.0,0.0,67,0.00,,,0.00,0.00,VWS V14.01,2013-08-29 07:26:00,
2013-08-29 01:31:00,62.6,51.1,29.99,North,-999,0.0,0.0,66,0.00,,,0.00,0.00,VWS V14.01,2013-08-29 07:31:00,
2013-08-29 01:36:00,62.9,51.0,30.00,North,-999,0.0,0.0,65,0.00,,,0.00,0.00,VWS V14.01,2013-08-29 07:36:00,
2013-08-29 01:41:00,63.3,51.8,29.99,North,-999,0.0,0.0,66,0.00,,,0.00,0.00,VWS V14.01,2013-08-29 07:41:00,
2013-08-29 01:46:00,63.4,51.4,29.99,North,-999,0.0,0.0,65,0.00,,,0.00,0.00,VWS V14.01,2013-08-29 07:46:00,
2013-08-29 01:51:00,64.3,51.5,29.99,North,-999,0.0,3.0,63,0.00,,,0.00,0.00,VWS V14.01,2013-08-29 07:51:00,
2013-08-29 01:56:00,64.5,51.2,29.99,North,-999,0.0,3.0,62,0.00,,,0.00,0.00,VWS V14.01,2013-08-29 07:56:00,
2013-08-29 02:01:00,64.7,51.4,29.99,North,-999,0.0,0.0,62,0.00,,,0.00,0.00,VWS V14.01,2013-08-29 08:01:00,
2013-08-29 02:06:00,65.1,51.3,29.99,North,-999,0.0,0.0,61,0.00,,,0.00,0.00,VWS V14.01,2013-08-29 08:06:00,
2013-08-29 02:11:00,66.2,51.5,29.99,North,-999,0.0,0.0,59,0.00,,,0.00,0.00,VWS V14.01,2013-08-29 08:11:00,
2013-08-29 02:16:00,67.5,51.8,29.99,North,-999,4.0,6.0,57,0.00,,,0.00,0.00,VWS V14.01,2013-08-29 08:16:00,
2013-08-29 02:21:00,67.8,51.5,29.99,North,-999,7.0,11.0,56,0.00,,,0.00,0.00,VWS V14.01,2013-08-29 08:21:00,
2013-08-29 02:26:00,68.0,51.2,29.99,North,-999,8.0,11.0,55,0.00,,,0.00,0.00,VWS V14.01,2013-08-29 08:26:00,
2013-08-29 02:31:00,68.3,51.5,29.99,North,-999,9.0,12.0,55,0.00,,,0.00,0.00,VWS V14.01,2013-08-29 08:31:00,
2013-08-29 02:36:00,68.0,51.7,29.99,North,-999,6.0,12.0,56,0.00,,,0.00,0.00,VWS V14.01,2013-08-29 08:36:00,
2013-08-29 02:41:00,67.9,51.6,29.99,North,-999,6.0,10.0,56,0.00,,,0.00,0.00,VWS V14.01,2013-08-29 08:41:00,
2013-08-29 02:46:00,67.6,52.3,29.99,North,-999,4.0,10.0,58,0.00,,,0.00,0.00,VWS V14.01,2013-08-29 08:46:00,
2013-08-29 02:51:00,67.7,52.4,29.99,North,-999,0.0,6.0,58,0.00,,,0.00,0.00,VWS V14.01,2013-08-29 08:51:00,
2013-08-29 02:56:00,67.7,52.4,29.99,North,-999,0.0,6.0,58,0.00,,,0.00,0.00,VWS V14.01,2013-08-29 08:56:00,
2013-08-29 03:01:00,67.1,51.8,30.00,North,-999,3.0,7.0,58,0.00,,,0.00,0.00,VWS V14.01,2013-08-29 09:01:00,
2013-08-29 03:06:00,66.0,52.2,30.00,North,-999,0.0,7.0,61,0.00,,,0.00,0.00,VWS V14.01,2013-08-29 09:06:00,
2013-08-29 03:11:00,65.6,51.8,30.00,North,-999,0.0,0.0,61,0.00,,,0.00,0.00,VWS V14.01,2013-08-29 09:11:00,
2013-08-29 03:16:00,65.2,51.9,30.00,North,-999,0.0,3.0,62,0.00,,,0.00,0.00,VWS V14.01,2013-08-29 09:16:00,
2013-08-29 03:21:00,65.5,52.2,30.00,North,-999,0.0,0.0,62,0.00,,,0.00,0.00,VWS V14.01,2013-08-29 09:21:00,
2013-08-29 03:26:00,65.7,51.9,30.00,North,-999,0.0,2.0,61,0.00,,,0.00,0.00,VWS V14.01,2013-08-29 09:26:00,
2013-08-29 03:31:00,63.4,51.9,30.00,North,-999,0.0,0.0,66,0.00,,,0.00,0.00,VWS V14.01,2013-08-29 09:31:00,
2013-08-29 03:36:00,61.6,51.7,30.00,North,-999,6.0,6.0,70,0.00,,,0.00,0.00,VWS V14.01,2013-08-29 09:36:00,
2013-08-29 03:41:00,61.1,51.6,30.00,North,-999,5.0,8.0,71,0.00,,,0.00,0.00,VWS V14.01,2013-08-29 09:41:00,
2013-08-29 03:46:00,62.2,52.3,30.00,North,-999,4.0,8.0,70,0.00,,,0.00,0.00,VWS V14.01,2013-08-29 09:46:00,
2013-08-29 03:51:00,63.3,52.2,30.00,North,-999,3.0,5.0,67,0.00,,,0.00,0.00,VWS V14.01,2013-08-29 09:51:00,
2013-08-29 03:56:00,63.6,52.0,30.01,North,-999,0.0,5.0,66,0.00,,,0.00,0.00,VWS V14.01,2013-08-29 09:56:00,
2013-08-29 04:01:00,64.0,51.6,30.01,North,-999,0.0,0.0,64,0.00,,,0.00,0.00,VWS V14.01,2013-08-29 10:01:00,
2013-08-29 04:06:00,64.7,51.4,30.01,North,-999,0.0,0.0,62,0.00,,,0.00,0.00,VWS V14.01,2013-08-29 10:06:00,
2013-08-29 04:11:00,65.2,51.4,30.01,North,-999,0.0,0.0,61,0.00,,,0.00,0.00,VWS V14.01,2013-08-29 10:11:00,
2013-08-29 04:16:00,65.4,51.6,30.01,North,-999,0.0,0.0,61,0.00,,,0.00,0.00,VWS V14.01,2013-08-29 10:16:00,
2013-08-29 04:21:00,64.1,51.3,30.01,North,-999,5.0,6.0,63,0.00,,,0.00,0.00,VWS V14.01,2013-08-29 10:21:00,
2013-08-29 04:26:00,63.0,51.1,30.01,North,-999,6.0,7.0,65,0.00,,,0.00,0.00,VWS V14.01,2013-08-29 10:26:00,
2013-08-29 04:31:00,61.8,51.1,30.02,North,-999,9.0,10.0,68,0.00,,,0.00,0.00,VWS V14.01,2013-08-29 10:31:00,
2013-08-29 04:36:00,60.5,51.4,30.02,North,-999,5.0,10.0,72,0.00,,,0.00,0.00,VWS V14.01,2013-08-29 10:36:00,
2013-08-29 04:41:00,59.4,51.5,30.02,North,-999,5.0,5.0,75,0.00,,,0.00,0.00,VWS V14.01,2013-08-29 10:41:00,
2013-08-29 04:46:00,59.0,51.5,30.02,North,-999,4.0,5.0,76,0.00,,,0.00,0.00,VWS V14.01,2013-08-29 10:46:00,
2013-08-29 04:51:00,58.7,51.5,30.02,North,-999,0.0,5.0,77,0.00,,,0.00,0.00,VWS V14.01,2013-08-29 10:51:00,
2013-08-29 04:56:00,58.8,51.6,30.02,North,-999,0.0,5.0,77,0.00,,,0.00,0.00,VWS V14.01,2013-08-29 10:56:00,
2013-08-29 05:01:00,58.9,51.4,30.03,North,-999,0.0,0.0,76,0.00,,,0.00,0.00,VWS V14.01,2013-08-29 11:01:00,
2013-08-29 05:06:00,59.4,51.5,30.03,North,-999,8.0,10.0,75,0.00,,,0.00,0.00,VWS V14.01,2013-08-29 11:06:00,
2013-08-29 05:11:00,59.9,51.6,30.03,North,-999,7.0,11.0,74,0.00,,,0.00,0.00,VWS V14.01,2013-08-29 11:11:00,
2013-08-29 05:16:00,59.1,51.5,30.03,North,-999,7.0,11.0,76,0.00,,,0.00,0.00,VWS V14.01,2013-08-29 11:16:00,
2013-08-29 05:21:00,58.2,51.0,30.03,North,-999,7.0,7.0,77,0.00,,,0.00,0.00,VWS V14.01,2013-08-29 11:21:00,
2013-08-29 05:26:00,57.6,51.5,30.03,North,-999,4.0,7.0,80,0.00,,,0.00,0.00,VWS V14.01,2013-08-29 11:26:00,
2013-08-29 05:31:00,57.2,51.4,30.03,North,-999,4.0,5.0,81,0.00,,,0.00,0.00,VWS V14.01,2013-08-29 11:31:00,
2013-08-29 05:35:00,56.8,51.0,30.03,North,-999,5.0,6.0,81,0.00,,,0.00,0.00,VWS V14.01,2013-08-29 11:35:00,
2013-08-29 05:40:00,56.7,51.3,30.03,North,-999,4.0,5.0,82,0.00,,,0.00,0.00,VWS V14.01,2013-08-29 11:40:00,
2013-08-29 05:45:00,56.3,51.2,30.03,North,-999,4.0,5.0,83,0.00,,,0.00,0.00,VWS V14.01,2013-08-29 11:45:00,
2013-08-29 05:50:00,56.1,51.0,30.03,North,-999,5.0,6.0,83,0.00,,,0.00,0.00,VWS V14.01,2013-08-29 11:50:00,
2013-08-29 05:55:00,56.2,51.1,30.03,North,-999,4.0,6.0,83,0.00,,,0.00,0.00,VWS V14.01,2013-08-29 11:55:00,
2013-08-29 06:00:00,56.4,51.3,30.03,North,-999,5.0,6.0,83,0.00,,,0.00,0.00,VWS V14.01,2013-08-29 12:00:00,
2013-08-29 06:05:00,57.1,51.7,30.03,North,-999,7.0,10.0,82,0.00,,,0.00,0.00,VWS V14.01,2013-08-29 12:05:00,
2013-08-29 06:10:00,57.4,51.6,30.04,North,-999,5.0,9.0,81,0.00,,,0.00,0.00,VWS V14.01,2013-08-29 12:10:00,
2013-08-29 06:15:00,57.7,51.9,30.04,North,-999,5.0,10.0,81,0.00,,,0.00,0.00,VWS V14.01,2013-08-29 12:15:00,
2013-08-29 06:20:00,58.0,51.9,30.04,North,-999,5.0,6.0,80,0.00,,,0.00,0.00,VWS V14.01,2013-08-29 12:20:00,
2013-08-29 06:25:00,57.9,52.1,30.04,North,-999,7.0,10.0,81,0.00,,,0.00,0.00,VWS V14.01,2013-08-29 12:25:00,
2013-08-29 06:30:00,58.2,52.1,30.05,North,-999,6.0,7.0,80,0.00,,,0.00,0.00,VWS V14.01,2013-08-29 12:30:00,
2013-08-29 06:35:00,58.2,52.1,30.05,North,-999,5.0,7.0,80,0.00,,,0.00,5.00,VWS V14.01,2013-08-29 12:35:00,
2013-08-29 06:40:00,58.2,52.1,30.05,North,-999,5.0,5.0,80,0.00,,,0.00,7.00,VWS V14.01,2013-08-29 12:40:00,
2013-08-29 06:45:00,58.7,51.9,30.04,North,-999,8.0,9.0,78,0.00,,,0.00,9.00,VWS V14.01,2013-08-29 12:45:00,
2013-08-29 06:50:00,58.7,51.9,30.04,North,-999,3.0,6.0,78,0.00,,,0.00,12.00,VWS V14.01,2013-08-29 12:50:00,
2013-08-29 06:55:00,58.8,52.0,30.04,North,-999,7.0,10.0,78,0.00,,,0.00,14.00,VWS V14.01,2013-08-29 12:55:00,
2013-08-29 07:00:00,59.2,52.0,30.04,North,-999,6.0,7.0,77,0.00,,,0.00,21.00,VWS V14.01,2013-08-29 13:00:00,
2013-08-29 07:05:00,59.4,52.2,30.04,North,-999,0.0,7.0,77,0.00,,,0.00,28.00,VWS V14.01,2013-08-29 13:05:00,
2013-08-29 07:10:00,59.8,52.6,30.05,North,-999,0.0,0.0,77,0.00,,,0.00,37.00,VWS V14.01,2013-08-29 13:10:00,
2013-08-29 07:15:00,60.0,52.4,30.05,North,-999,2.0,5.0,76,0.00,,,0.00,47.00,VWS V14.01,2013-08-29 13:15:00,
2013-08-29 07:20:00,60.3,52.3,30.05,North,-999,6.0,6.0,75,0.00,,,0.00,60.00,VWS V14.01,2013-08-29 13:20:00,
2013-08-29 07:25:00,60.7,52.7,30.05,North,-999,3.0,6.0,75,0.00,,,0.00,72.00,VWS V14.01,2013-08-29 13:25:00,
2013-08-29 07:30:00,61.1,52.4,30.05,North,-999,4.0,9.0,73,0.00,,,0.00,86.00,VWS V14.01,2013-08-29 13:30:00,
2013-08-29 07:35:00,61.5,52.8,30.06,North,-999,6.0,9.0,73,0.00,,,0.00,104.00,VWS V14.01,2013-08-29 13:35:00,
2013-08-29 07:40:00,61.5,52.4,30.05,North,-999,9.0,11.0,72,0.00,,,0.00,118.00,VWS V14.01,2013-08-29 13:40:00,
2013-08-29 07:45:00,61.6,52.1,30.05,North,-999,7.0,11.0,71,0.00,,,0.00,134.00,VWS V14.01,2013-08-29 13:45:00,
2013-08-29 07:50:00,61.9,52.4,30.05,North,-999,6.0,7.0,71,0.00,,,0.00,153.00,VWS V14.01,2013-08-29 13:50:00,
2013-08-29 07:55:00,62.4,52.5,30.05,North,-999,5.0,9.0,70,0.00,,,0.00,171.00,VWS V14.01,2013-08-29 13:55:00,
2013-08-29 08:00:00,62.9,52.6,30.05,North,-999,6.0,8.0,69,0.00,,,0.00,186.00,VWS V14.01,2013-08-29 14:00:00,
2013-08-29 08:05:00,63.9,52.7,30.05,North,-999,8.0,10.0,67,0.00,,,0.00,202.00,VWS V14.01,2013-08-29 14:05:00,
2013-08-29 08:10:00,64.5,52.9,30.05,North,-999,9.0,10.0,66,0.00,,,0.00,216.00,VWS V14.01,2013-08-29 14:10:00,
2013-08-29 08:15:00,65.2,53.6,30.05,North,-999,8.0,10.0,66,0.00,,,0.00,230.00,VWS V14.01,2013-08-29 14:15:00,
2013-08-29 08:20:00,65.8,53.7,30.05,North,-999,5.0,7.0,65,0.00,,,0.00,246.00,VWS V14.01,2013-08-29 14:20:00,
2013-08-29 08:25:00,66.4,53.9,30.06,North,-999,7.0,10.0,64,0.00,,,0.00,260.00,VWS V14.01,2013-08-29 14:25:00,
2013-08-29 08:30:00,67.0,53.6,30.06,North,-999,8.0,9.0,62,0.00,,,0.00,276.00,VWS V14.01,2013-08-29 14:30:00,
2013-08-29 08:35:00,67.6,53.7,30.06,North,-999,6.0,9.0,61,0.00,,,0.00,292.00,VWS V14.01,2013-08-29 14:35:00,
2013-08-29 08:40:00,68.0,54.1,30.06,North,-999,6.0,9.0,61,0.00,,,0.00,306.00,VWS V14.01,2013-08-29 14:40:00,
2013-08-29 08:45:00,68.5,53.2,30.06,North,-999,6.0,9.0,58,0.00,,,0.00,322.00,VWS V14.01,2013-08-29 14:45:00,
2013-08-29 08:50:00,68.6,53.2,30.06,North,-999,6.0,8.0,58,0.00,,,0.00,336.00,VWS V14.01,2013-08-29 14:50:00,
2013-08-29 08:55:00,69.0,54.1,30.06,North,-999,6.0,9.0,59,0.00,,,0.00,352.00,VWS V14.01,2013-08-29 14:55:00,
2013-08-29 09:00:00,69.5,54.1,30.06,North,-999,7.0,10.0,58,0.00,,,0.00,366.00,VWS V14.01,2013-08-29 15:00:00,
2013-08-29 09:05:00,70.2,53.8,30.06,North,-999,7.0,10.0,56,0.00,,,0.00,381.00,VWS V14.01,2013-08-29 15:05:00,
2013-08-29 09:10:00,71.0,54.5,30.06,North,-999,4.0,6.0,56,0.00,,,0.00,392.00,VWS V14.01,2013-08-29 15:10:00,
2013-08-29 09:15:00,71.5,54.0,30.06,North,-999,4.0,6.0,54,0.00,,,0.00,406.00,VWS V14.01,2013-08-29 15:15:00,
2013-08-29 09:20:00,71.9,54.4,30.06,North,-999,2.0,5.0,54,0.00,,,0.00,422.00,VWS V14.01,2013-08-29 15:20:00,
2013-08-29 09:25:00,72.4,54.3,30.06,North,-999,0.0,5.0,53,0.00,,,0.00,436.00,VWS V14.01,2013-08-29 15:25:00,
2013-08-29 09:30:00,73.0,54.9,30.06,North,-999,0.0,0.0,53,0.00,,,0.00,448.00,VWS V14.01,2013-08-29 15:30:00,
2013-08-29 09:35:00,74.0,53.1,30.06,North,-999,0.0,0.0,48,0.00,,,0.00,468.00,VWS V14.01,2013-08-29 15:35:00,
2013-08-29 09:40:00,75.7,52.3,30.06,North,-999,0.0,0.0,44,0.00,,,0.00,480.00,VWS V14.01,2013-08-29 15:40:00,
2013-08-29 09:45:00,76.6,52.5,30.06,North,-999,0.0,4.0,43,0.00,,,0.00,494.00,VWS V14.01,2013-08-29 15:45:00,
2013-08-29 09:50:00,76.7,51.2,30.06,North,-999,2.0,5.0,41,0.00,,,0.00,506.00,VWS V14.01,2013-08-29 15:50:00,
2013-08-29 09:55:00,76.6,51.8,30.06,North,-999,3.0,5.0,42,0.00,,,0.00,522.00,VWS V14.01,2013-08-29 15:55:00,
2013-08-29 10:00:00,77.0,50.9,30.06,North,-999,3.0,7.0,40,0.00,,,0.00,536.00,VWS V14.01,2013-08-29 16:00:00,
2013-08-29 10:05:00,77.4,51.2,30.06,North,-999,7.0,7.0,40,0.00,,,0.00,550.00,VWS V14.01,2013-08-29 16:05:00,
2013-08-29 10:10:00,77.4,51.9,30.06,North,-999,4.0,6.0,41,0.00,,,0.00,561.00,VWS V14.01,2013-08-29 16:10:00,
2013-08-29 10:15:00,77.7,52.2,30.06,North,-999,4.0,7.0,41,0.00,,,0.00,573.00,VWS V14.01,2013-08-29 16:15:00,
2013-08-29 10:20:00,78.0,52.4,30.06,North,-999,3.0,6.0,41,0.00,,,0.00,585.00,VWS V14.01,2013-08-29 16:20:00,
2013-08-29 10:25:00,78.2,52.6,30.06,North,-999,0.0,6.0,41,0.00,,,0.00,598.00,VWS V14.01,2013-08-29 16:25:00,
2013-08-29 10:30:00,78.4,52.1,30.06,North,-999,6.0,9.0,40,0.00,,,0.00,610.00,VWS V14.01,2013-08-29 16:30:00,
2013-08-29 10:35:00,78.6,52.3,30.06,North,-999,6.0,9.0,40,0.00,,,0.00,622.00,VWS V14.01,2013-08-29 16:35:00,
2013-08-29 10:40:00,78.8,51.8,30.06,North,-999,6.0,9.0,39,0.00,,,0.00,633.00,VWS V14.01,2013-08-29 16:40:00,
2013-08-29 10:45:00,78.7,51.7,30.06,North,-999,4.0,10.0,39,0.00,,,0.00,645.00,VWS V14.01,2013-08-29 16:45:00,
2013-08-29 10:50:00,78.9,51.2,30.06,North,-999,4.0,6.0,38,0.00,,,0.00,649.00,VWS V14.01,2013-08-29 16:50:00,
2013-08-29 10:55:00,78.9,51.9,30.06,North,-999,2.0,7.0,39,0.00,,,0.00,673.00,VWS V14.01,2013-08-29 16:55:00,
2013-08-29 11:00:00,78.8,51.1,30.06,North,-999,6.0,9.0,38,0.00,,,0.00,675.00,VWS V14.01,2013-08-29 17:00:00,
2013-08-29 11:05:00,79.0,51.2,30.06,North,-999,4.0,9.0,38,0.00,,,0.00,608.00,VWS V14.01,2013-08-29 17:05:00,
2013-08-29 11:10:00,79.2,51.4,30.06,North,-999,4.0,7.0,38,0.00,,,0.00,613.00,VWS V14.01,2013-08-29 17:10:00,
2013-08-29 11:14:00,79.1,51.3,30.05,North,-999,2.0,7.0,38,0.00,,,0.00,714.00,VWS V14.01,2013-08-29 17:14:00,
2013-08-29 11:19:00,79.3,51.5,30.06,North,-999,0.0,6.0,38,0.00,,,0.00,714.00,VWS V14.01,2013-08-29 17:19:00,
2013-08-29 11:24:00,79.6,52.5,30.05,North,-999,5.0,8.0,39,0.00,,,0.00,522.00,VWS V14.01,2013-08-29 17:24:00,
2013-08-29 11:29:00,79.7,52.6,30.06,North,-999,0.0,9.0,39,0.00,,,0.00,733.00,VWS V14.01,2013-08-29 17:29:00,
2013-08-29 11:34:00,80.1,52.9,30.06,North,-999,1.0,9.0,39,0.00,,,0.00,751.00,VWS V14.01,2013-08-29 17:34:00,
2013-08-29 11:39:00,80.5,52.6,30.06,North,-999,5.0,11.0,38,0.00,,,0.00,754.00,VWS V14.01,2013-08-29 17:39:00,
2013-08-29 11:44:00,80.5,52.6,30.06,North,-999,5.0,11.0,38,0.00,,,0.00,777.00,VWS V14.01,2013-08-29 17:44:00,
2013-08-29 11:49:00,80.6,52.0,30.06,North,-999,2.0,7.0,37,0.00,,,0.00,758.00,VWS V14.01,2013-08-29 17:49:00,
2013-08-29 11:54:00,80.9,52.2,30.06,North,-999,1.0,9.0,37,0.00,,,0.00,765.00,VWS V14.01,2013-08-29 17:54:00,
2013-08-29 11:59:00,81.2,52.5,30.06,North,-999,2.0,6.0,37,0.00,,,0.00,780.00,VWS V14.01,2013-08-29 17:59:00,
2013-08-29 12:04:00,81.2,52.5,30.06,North,-999,0.0,7.0,37,0.00,,,0.00,842.00,VWS V14.01,2013-08-29 18:04:00,
2013-08-29 12:09:00,81.6,52.1,30.05,North,-999,2.0,7.0,36,0.00,,,0.00,819.00,VWS V14.01,2013-08-29 18:09:00,
2013-08-29 12:14:00,81.6,52.1,30.05,North,-999,0.0,7.0,36,0.00,,,0.00,810.00,VWS V14.01,2013-08-29 18:14:00,
2013-08-29 12:19:00,82.0,51.7,30.05,North,-999,0.0,6.0,35,0.00,,,0.00,842.00,VWS V14.01,2013-08-29 18:19:00,
2013-08-29 12:24:00,82.1,51.0,30.05,North,-999,4.0,9.0,34,0.00,,,0.00,933.00,VWS V14.01,2013-08-29 18:24:00,
2013-08-29 12:29:00,82.0,51.7,30.05,North,-999,3.0,7.0,35,0.00,,,0.00,981.00,VWS V14.01,2013-08-29 18:29:00,
2013-08-29 12:34:00,82.1,51.8,30.04,North,-999,5.0,9.0,35,0.00,,,0.00,900.00,VWS V14.01,2013-08-29 18:34:00,
2013-08-29 12:39:00,82.3,51.9,30.04,North,-999,0.0,7.0,35,0.00,,,0.00,861.00,VWS V14.01,2013-08-29 18:39:00,
2013-08-29 12:44:00,82.6,52.2,30.04,North,-999,10.0,10.0,35,0.00,,,0.00,849.00,VWS V14.01,2013-08-29 18:44:00,
2013-08-29 12:49:00,82.7,52.3,30.04,North,-999,9.0,10.0,35,0.00,,,0.00,840.00,VWS V14.01,2013-08-29 18:49:00,
2013-08-29 12:54:00,83.1,52.6,30.03,North,-999,3.0,10.0,35,0.00,,,0.00,826.00,VWS V14.01,2013-08-29 18:54:00,
2013-08-29 12:59:00,83.3,52.0,30.03,North,-999,5.0,7.0,34,0.00,,,0.00,819.00,VWS V14.01,2013-08-29 18:59:00,
2013-08-29 13:04:00,83.8,52.5,30.03,North,-999,3.0,10.0,34,0.00,,,0.00,817.00,VWS V14.01,2013-08-29 19:04:00,
2013-08-29 13:09:00,84.2,52.0,30.03,North,-999,3.0,7.0,33,0.00,,,0.00,821.00,VWS V14.01,2013-08-29 19:09:00,
2013-08-29 13:14:00,84.8,51.7,30.02,North,-999,10.0,10.0,32,0.00,,,0.00,817.00,VWS V14.01,2013-08-29 19:14:00,
2013-08-29 13:19:00,84.5,51.4,30.02,North,-999,1.0,9.0,32,0.00,,,0.00,821.00,VWS V14.01,2013-08-29 19:19:00,
2013-08-29 13:24:00,84.7,52.4,30.01,North,-999,6.0,9.0,33,0.00,,,0.00,817.00,VWS V14.01,2013-08-29 19:24:00,
2013-08-29 13:29:00,85.2,52.9,30.01,North,-999,2.0,6.0,33,0.00,,,0.00,819.00,VWS V14.01,2013-08-29 19:29:00,
2013-08-29 13:34:00,85.8,51.7,30.01,North,-999,5.0,12.0,31,0.00,,,0.00,819.00,VWS V14.01,2013-08-29 19:34:00,
2013-08-29 13:39:00,86.0,51.0,30.01,North,-999,7.0,12.0,30,0.00,,,0.00,819.00,VWS V14.01,2013-08-29 19:39:00,
2013-08-29 13:44:00,86.1,51.1,30.01,North,-999,7.0,14.0,30,0.00,,,0.00,817.00,VWS V14.01,2013-08-29 19:44:00,
2013-08-29 13:49:00,86.0,51.0,30.00,North,-999,6.0,12.0,30,0.00,,,0.00,817.00,VWS V14.01,2013-08-29 19:49:00,
2013-08-29 13:54:00,86.4,51.3,30.00,North,-999,6.0,14.0,30,0.00,,,0.00,810.00,VWS V14.01,2013-08-29 19:54:00,
2013-08-29 13:59:00,86.8,50.8,30.00,North,-999,9.0,13.0,29,0.00,,,0.00,809.00,VWS V14.01,2013-08-29 19:59:00,
2013-08-29 14:04:00,86.8,50.8,30.00,North,-999,6.0,13.0,29,0.00,,,0.00,805.00,VWS V14.01,2013-08-29 20:04:00,
2013-08-29 14:09:00,87.0,50.9,30.00,North,-999,10.0,13.0,29,0.00,,,0.00,805.00,VWS V14.01,2013-08-29 20:09:00,
2013-08-29 14:14:00,86.8,49.8,30.00,North,-999,4.0,13.0,28,0.00,,,0.00,886.00,VWS V14.01,2013-08-29 20:14:00,
2013-08-29 14:19:00,86.7,50.7,29.99,North,-999,5.0,13.0,29,0.00,,,0.00,889.00,VWS V14.01,2013-08-29 20:19:00,
2013-08-29 14:24:00,87.3,51.2,29.99,North,-999,11.0,15.0,29,0.00,,,0.00,884.00,VWS V14.01,2013-08-29 20:24:00,
2013-08-29 14:29:00,87.4,50.3,29.99,North,-999,5.0,13.0,28,0.00,,,0.00,886.00,VWS V14.01,2013-08-29 20:29:00,
2013-08-29 14:34:00,87.8,51.6,29.99,North,-999,9.0,13.0,29,0.00,,,0.00,870.00,VWS V14.01,2013-08-29 20:34:00,
2013-08-29 14:39:00,87.9,49.8,29.99,North,-999,10.0,16.0,27,0.00,,,0.00,849.00,VWS V14.01,2013-08-29 20:39:00,
2013-08-29 14:44:00,87.7,50.6,29.98,North,-999,6.0,16.0,28,0.00,,,0.00,886.00,VWS V14.01,2013-08-29 20:44:00,
2013-08-29 14:49:00,87.7,50.6,29.98,North,-999,8.0,14.0,28,0.00,,,0.00,244.00,VWS V14.01,2013-08-29 20:49:00,
2013-08-29 14:54:00,87.5,50.4,29.98,North,-999,6.0,14.0,28,0.00,,,0.00,190.00,VWS V14.01,2013-08-29 20:54:00,
2013-08-29 14:59:00,87.3,49.3,29.98,North,-999,13.0,16.0,27,0.00,,,0.00,213.00,VWS V14.01,2013-08-29 20:59:00,
2013-08-29 15:04:00,87.0,50.0,29.98,North,-999,5.0,16.0,28,0.00,,,0.00,206.00,VWS V14.01,2013-08-29 21:04:00,
2013-08-29 15:09:00,87.0,50.0,29.98,North,-999,9.0,12.0,28,0.00,,,0.00,313.00,VWS V14.01,2013-08-29 21:09:00,
2013-08-29 15:14:00,87.2,50.2,29.98,North,-999,12.0,16.0,28,0.00,,,0.00,299.00,VWS V14.01,2013-08-29 21:14:00,
2013-08-29 15:19:00,87.5,51.4,29.98,North,-999,10.0,11.0,29,0.00,,,0.00,828.00,VWS V14.01,2013-08-29 21:19:00,
2013-08-29 15:24:00,87.7,50.6,29.98,North,-999,11.0,14.0,28,0.00,,,0.00,272.00,VWS V14.01,2013-08-29 21:24:00,
2013-08-29 15:29:00,87.4,51.3,29.98,North,-999,5.0,11.0,29,0.00,,,0.00,559.00,VWS V14.01,2013-08-29 21:29:00,
2013-08-29 15:34:00,87.4,51.3,29.98,North,-999,10.0,11.0,29,0.00,,,0.00,793.00,VWS V14.01,2013-08-29 21:34:00,
2013-08-29 15:39:00,87.8,51.6,29.98,North,-999,11.0,13.0,29,0.00,,,0.00,171.00,VWS V14.01,2013-08-29 21:39:00,
2013-08-29 15:44:00,87.2,52.9,29.99,North,-999,12.0,15.0,31,0.00,,,0.00,142.00,VWS V14.01,2013-08-29 21:44:00,
2013-08-29 15:49:00,86.1,51.1,29.99,North,-999,9.0,14.0,30,0.00,,,0.00,142.00,VWS V14.01,2013-08-29 21:49:00,
2013-08-29 15:54:00,85.6,50.7,29.99,North,-999,2.0,14.0,30,0.00,,,0.00,105.00,VWS V14.01,2013-08-29 21:54:00,
2013-08-29 15:59:00,85.6,50.7,29.99,North,-999,0.0,4.0,30,0.00,,,0.00,69.00,VWS V14.01,2013-08-29 21:59:00,
2013-08-29 16:04:00,85.7,49.8,29.99,North,-999,1.0,5.0,29,0.00,,,0.00,53.00,VWS V14.01,2013-08-29 22:04:00,
2013-08-29 16:09:00,85.6,50.7,29.99,North,-999,0.0,3.0,30,0.00,,,0.00,30.00,VWS V14.01,2013-08-29 22:09:00,
2013-08-29 16:14:00,85.3,53.8,30.01,North,-999,21.0,33.0,34,0.00,,,0.00,19.00,VWS V14.01,2013-08-29 22:14:00,
2013-08-29 16:19:00,76.5,56.5,30.03,North,-999,32.0,40.0,50,0.00,,,0.00,19.00,VWS V14.01,2013-08-29 22:19:00,
2013-08-29 16:24:00,70.5,56.0,30.05,North,-999,34.0,52.0,60,0.01,,,0.01,28.00,VWS V14.01,2013-08-29 22:24:00,
2013-08-29 16:29:00,71.0,55.0,30.06,North,-999,27.0,29.0,57,0.02,,,0.02,23.00,VWS V14.01,2013-08-29 22:29:00,
2013-08-29 16:34:00,71.9,54.4,30.08,North,-999,23.0,31.0,54,0.02,,,0.02,21.00,VWS V14.01,2013-08-29 22:34:00,
2013-08-29 16:39:00,72.5,55.4,30.08,North,-999,12.0,16.0,55,0.02,,,0.02,32.00,VWS V14.01,2013-08-29 22:39:00,
2013-08-29 16:44:00,70.8,57.2,30.08,North,-999,9.0,19.0,62,0.02,,,0.02,58.00,VWS V14.01,2013-08-29 22:44:00,
2013-08-29 16:49:00,69.6,58.2,30.08,North,-999,4.0,5.0,67,0.02,,,0.02,58.00,VWS V14.01,2013-08-29 22:49:00,
2013-08-29 16:53:00,69.2,58.2,30.06,North,-999,0.0,5.0,68,0.02,,,0.02,72.00,VWS V14.01,2013-08-29 22:53:00,
2013-08-29 16:58:00,69.3,58.3,30.05,North,-999,0.0,0.0,68,0.02,,,0.02,156.00,VWS V14.01,2013-08-29 22:58:00,
2013-08-29 17:03:00,69.8,59.2,30.05,North,-999,4.0,8.0,69,0.02,,,0.02,181.00,VWS V14.01,2013-08-29 23:03:00,
2013-08-29 17:08:00,70.6,60.3,30.03,North,-999,4.0,5.0,70,0.02,,,0.02,211.00,VWS V14.01,2013-08-29 23:08:00,
2013-08-29 17:13:00,71.1,60.4,30.03,North,-999,1.0,6.0,69,0.02,,,0.02,225.00,VWS V14.01,2013-08-29 23:13:00,
2013-08-29 17:18:00,71.2,60.1,30.02,North,-999,9.0,10.0,68,0.02,,,0.02,236.00,VWS V14.01,2013-08-29 23:18:00,
2013-08-29 17:23:00,71.0,59.5,30.02,North,-999,7.0,15.0,67,0.02,,,0.02,179.00,VWS V14.01,2013-08-29 23:23:00,
2013-08-29 17:28:00,71.4,59.0,30.02,North,-999,7.0,12.0,65,0.00,,,0.02,199.00,VWS V14.01,2013-08-29 23:28:00,
2013-08-29 17:33:00,71.8,58.1,30.02,North,-999,4.0,12.0,62,0.00,,,0.02,165.00,VWS V14.01,2013-08-29 23:33:00,
2013-08-29 17:38:00,72.3,59.5,30.03,North,-999,6.0,6.0,64,0.00,,,0.02,183.00,VWS V14.01,2013-08-29 23:38:00,
2013-08-29 17:43:00,72.4,59.5,30.03,North,-999,0.0,9.0,64,0.00,,,0.02,163.00,VWS V14.01,2013-08-29 23:43:00,
2013-08-29 17:48:00,72.8,59.5,30.03,North,-999,0.0,0.0,63,0.00,,,0.02,167.00,VWS V14.01,2013-08-29 23:48:00,
2013-08-29 17:53:00,73.3,59.5,30.04,North,-999,4.0,5.0,62,0.00,,,0.02,139.00,VWS V14.01,2013-08-29 23:53:00,
2013-08-29 17:58:00,73.6,59.8,30.04,North,-999,4.0,5.0,62,0.00,,,0.02,120.00,VWS V14.01,2013-08-29 23:58:00,
2013-08-29 18:03:00,73.7,58.5,30.03,North,-999,5.0,5.0,59,0.00,,,0.02,114.00,VWS V14.01,2013-08-30 00:03:00,
2013-08-29 18:08:00,73.7,59.9,30.04,North,-999,0.0,5.0,62,0.00,,,0.02,102.00,VWS V14.01,2013-08-30 00:08:00,
2013-08-29 18:13:00,73.7,60.3,30.04,North,-999,0.0,5.0,63,0.00,,,0.02,109.00,VWS V14.01,2013-08-30 00:13:00,
2013-08-29 18:18:00,73.7,60.8,30.04,North,-999,0.0,0.0,64,0.00,,,0.02,97.00,VWS V14.01,2013-08-30 00:18:00,
2013-08-29 18:23:00,73.8,61.7,30.04,North,-999,0.0,0.0,66,0.00,,,0.02,88.00,VWS V14.01,2013-08-30 00:23:00,
2013-08-29 18:28:00,73.5,61.9,30.04,North,-999,0.0,0.0,67,0.00,,,0.02,72.00,VWS V14.01,2013-08-30 00:28:00,
2013-08-29 18:33:00,73.5,61.5,30.04,North,-999,0.0,0.0,66,0.00,,,0.02,70.00,VWS V14.01,2013-08-30 00:33:00,
2013-08-29 18:38:00,73.6,61.5,30.04,North,-999,0.0,0.0,66,0.00,,,0.02,102.00,VWS V14.01,2013-08-30 00:38:00,
2013-08-29 18:43:00,73.7,59.9,30.04,North,-999,0.0,4.0,62,0.00,,,0.02,77.00,VWS V14.01,2013-08-30 00:43:00,
2013-08-29 18:48:00,73.9,59.6,30.05,North,-999,0.0,0.0,61,0.00,,,0.02,69.00,VWS V14.01,2013-08-30 00:48:00,
2013-08-29 18:53:00,73.7,62.1,30.05,North,-999,16.0,16.0,67,0.00,,,0.02,69.00,VWS V14.01,2013-08-30 00:53:00,
2013-08-29 18:58:00,72.4,62.1,30.05,North,-999,10.0,14.0,70,0.00,,,0.02,77.00,VWS V14.01,2013-08-30 00:58:00,
2013-08-29 19:03:00,72.0,61.7,30.05,North,-999,6.0,14.0,70,0.00,,,0.02,98.00,VWS V14.01,2013-08-30 01:03:00,
2013-08-29 19:08:00,71.9,61.6,30.05,North,-999,5.0,10.0,70,0.00,,,0.02,98.00,VWS V14.01,2013-08-30 01:08:00,
2013-08-29 19:13:00,72.2,61.5,30.05,North,-999,3.0,10.0,69,0.00,,,0.02,84.00,VWS V14.01,2013-08-30 01:13:00,
2013-08-29 19:18:00,72.6,59.7,30.05,North,-999,7.0,7.0,64,0.00,,,0.02,72.00,VWS V14.01,2013-08-30 01:18:00,
2013-08-29 19:23:00,72.7,60.7,30.05,North,-999,3.0,7.0,66,0.00,,,0.02,56.00,VWS V14.01,2013-08-30 01:23:00,
2013-08-29 19:28:00,72.6,60.6,30.05,North,-999,3.0,5.0,66,0.00,,,0.02,42.00,VWS V14.01,2013-08-30 01:28:00,
2013-08-29 19:33:00,72.6,60.6,30.05,North,-999,2.0,5.0,66,0.00,,,0.02,33.00,VWS V14.01,2013-08-30 01:33:00,
2013-08-29 19:38:00,72.6,60.6,30.05,North,-999,0.0,0.0,66,0.00,,,0.02,23.00,VWS V14.01,2013-08-30 01:38:00,
2013-08-29 19:43:00,72.6,59.3,30.04,North,-999,0.0,0.0,63,0.00,,,0.02,16.00,VWS V14.01,2013-08-30 01:43:00,
2013-08-29 19:48:00,72.7,58.9,30.04,North,-999,0.0,0.0,62,0.00,,,0.02,12.00,VWS V14.01,2013-08-30 01:48:00,
2013-08-29 19:53:00,72.7,58.9,30.04,North,-999,0.0,0.0,62,0.00,,,0.02,11.00,VWS V14.01,2013-08-30 01:53:00,
2013-08-29 19:58:00,72.6,58.4,30.04,North,-999,0.0,0.0,61,0.00,,,0.02,9.00,VWS V14.01,2013-08-30 01:58:00,
2013-08-29 20:03:00,72.6,58.4,30.04,North,-999,0.0,0.0,61,0.00,,,0.02,5.00,VWS V14.01,2013-08-30 02:03:00,
2013-08-29 20:08:00,70.6,60.0,30.04,North,-999,3.0,4.0,69,0.00,,,0.02,0.00,VWS V14.01,2013-08-30 02:08:00,
2013-08-29 20:13:00,69.6,59.4,30.03,North,-999,4.0,4.0,70,0.00,,,0.02,0.00,VWS V14.01,2013-08-30 02:13:00,
2013-08-29 20:18:00,68.8,59.4,30.03,North,-999,2.0,3.0,72,0.00,,,0.02,0.00,VWS V14.01,2013-08-30 02:18:00,
2013-08-29 20:23:00,68.1,58.7,30.03,North,-999,0.0,4.0,72,0.00,,,0.02,0.00,VWS V14.01,2013-08-30 02:23:00,
2013-08-29 20:28:00,68.0,58.7,30.03,North,-999,0.0,0.0,72,0.00,,,0.02,0.00,VWS V14.01,2013-08-30 02:28:00,
2013-08-29 20:33:00,67.3,58.7,30.03,North,-999,0.0,0.0,74,0.00,,,0.02,0.00,VWS V14.01,2013-08-30 02:33:00,
2013-08-29 20:38:00,66.7,58.9,30.03,North,-999,0.0,0.0,76,0.00,,,0.02,0.00,VWS V14.01,2013-08-30 02:38:00,
2013-08-29 20:43:00,66.6,58.8,30.03,North,-999,0.0,0.0,76,0.00,,,0.02,0.00,VWS V14.01,2013-08-30 02:43:00,
2013-08-29 20:48:00,66.4,59.0,30.04,North,-999,0.0,0.0,77,0.00,,,0.02,0.00,VWS V14.01,2013-08-30 02:48:00,
2013-08-29 20:53:00,66.5,58.7,30.03,North,-999,0.0,0.0,76,0.00,,,0.02,0.00,VWS V14.01,2013-08-30 02:53:00,
2013-08-29 20:58:00,66.4,58.6,30.04,North,-999,0.0,0.0,76,0.00,,,0.02,0.00,VWS V14.01,2013-08-30 02:58:00,
2013-08-29 21:03:00,67.0,58.1,30.04,North,-999,3.0,4.0,73,0.00,,,0.02,0.00,VWS V14.01,2013-08-30 03:03:00,
2013-08-29 21:08:00,67.1,57.8,30.04,North,-999,0.0,0.0,72,0.00,,,0.02,0.00,VWS V14.01,2013-08-30 03:08:00,
2013-08-29 21:13:00,66.8,58.3,30.04,North,-999,3.0,5.0,74,0.00,,,0.02,0.00,VWS V14.01,2013-08-30 03:13:00,
2013-08-29 21:18:00,66.4,58.2,30.03,North,-999,0.0,0.0,75,0.00,,,0.02,0.00,VWS V14.01,2013-08-30 03:18:00,
2013-08-29 21:23:00,66.1,58.3,30.04,North,-999,0.0,0.0,76,0.00,,,0.02,0.00,VWS V14.01,2013-08-30 03:23:00,
2013-08-29 21:28:00,65.0,58.0,30.04,North,-999,3.0,4.0,78,0.00,,,0.02,0.00,VWS V14.01,2013-08-30 03:28:00,
2013-08-29 21:33:00,63.7,57.8,30.03,North,-999,3.0,5.0,81,0.00,,,0.02,0.00,VWS V14.01,2013-08-30 03:33:00,
2013-08-29 21:38:00,63.0,57.4,30.03,North,-999,0.0,0.0,82,0.00,,,0.02,0.00,VWS V14.01,2013-08-30 03:38:00,
2013-08-29 21:43:00,62.5,57.6,30.03,North,-999,0.0,0.0,84,0.00,,,0.02,0.00,VWS V14.01,2013-08-30 03:43:00,
2013-08-29 21:48:00,62.4,57.8,30.03,North,-999,0.0,0.0,85,0.00,,,0.02,0.00,VWS V14.01,2013-08-30 03:48:00,
2013-08-29 21:53:00,62.7,58.1,30.03,North,-999,0.0,0.0,85,0.00,,,0.02,0.00,VWS V14.01,2013-08-30 03:53:00,
2013-08-29 21:58:00,62.9,57.3,30.02,North,-999,6.0,6.0,82,0.00,,,0.02,0.00,VWS V14.01,2013-08-30 03:58:00,
2013-08-29 22:01:00,62.3,56.7,30.02,North,-999,6.0,6.0,82,0.00,,,0.02,0.00,VWS V14.01,2013-08-30 04:01:00,
2013-08-29 22:06:00,60.9,56.4,30.03,North,-999,9.0,10.0,85,0.00,,,0.02,0.00,VWS V14.01,2013-08-30 04:06:00,
2013-08-29 22:11:00,61.3,56.8,30.03,North,-999,5.0,10.0,85,0.00,,,0.02,0.00,VWS V14.01,2013-08-30 04:11:00,
2013-08-29 22:16:00,61.7,56.5,30.02,North,-999,5.0,11.0,83,0.00,,,0.02,0.00,VWS V14.01,2013-08-30 04:16:00,
2013-08-29 22:21:00,61.7,56.5,30.02,North,-999,3.0,6.0,83,0.00,,,0.02,0.00,VWS V14.01,2013-08-30 04:21:00,
2013-08-29 22:26:00,61.6,56.4,30.02,North,-999,0.0,6.0,83,0.00,,,0.02,0.00,VWS V14.01,2013-08-30 04:26:00,
2013-08-29 22:27:00,61.6,56.4,30.02,North,-999,6.0,7.0,83,0.00,,,0.02,0.00,VWS V14.01,2013-08-30 04:27:00,
2013-08-29 22:32:00,61.5,56.3,30.02,North,-999,5.0,6.0,83,0.00,,,0.02,0.00,VWS V14.01,2013-08-30 04:32:00,
2013-08-29 22:37:00,61.3,56.4,30.02,North,-999,5.0,6.0,84,0.00,,,0.02,0.00,VWS V14.01,2013-08-30 04:37:00,
2013-08-29 22:42:00,61.0,56.1,30.02,North,-999,0.0,5.0,84,0.00,,,0.02,0.00,VWS V14.01,2013-08-30 04:42:00,
2013-08-29 22:47:00,60.8,55.9,30.02,North,-999,0.0,5.0,84,0.00,,,0.02,0.00,VWS V14.01,2013-08-30 04:47:00,
2013-08-29 22:52:00,60.9,56.0,30.02,North,-999,0.0,0.0,84,0.00,,,0.02,0.00,VWS V14.01,2013-08-30 04:52:00,
2013-08-29 22:57:00,61.3,56.4,30.02,North,-999,0.0,0.0,84,0.00,,,0.02,0.00,VWS V14.01,2013-08-30 04:57:00,
2013-08-29 23:02:00,62.1,56.5,30.02,North,-999,6.0,9.0,82,0.00,,,0.02,0.00,VWS V14.01,2013-08-30 05:02:00,
2013-08-29 23:07:00,61.9,56.3,30.02,North,-999,6.0,9.0,82,0.00,,,0.02,0.00,VWS V14.01,2013-08-30 05:07:00,
2013-08-29 23:12:00,61.5,56.3,30.02,North,-999,6.0,10.0,83,0.00,,,0.02,0.00,VWS V14.01,2013-08-30 05:12:00,
2013-08-29 23:17:00,61.2,56.0,30.02,North,-999,4.0,10.0,83,0.00,,,0.02,0.00,VWS V14.01,2013-08-30 05:17:00,
2013-08-29 23:22:00,60.9,56.0,30.02,North,-999,2.0,6.0,84,0.00,,,0.02,0.00,VWS V14.01,2013-08-30 05:22:00,
2013-08-29 23:27:00,61.2,56.7,30.02,North,-999,0.0,6.0,85,0.00,,,0.02,0.00,VWS V14.01,2013-08-30 05:27:00,
2013-08-29 23:32:00,61.3,56.4,30.02,North,-999,0.0,0.0,84,0.00,,,0.02,0.00,VWS V14.01,2013-08-30 05:32:00,
2013-08-29 23:37:00,61.3,56.4,30.03,North,-999,0.0,0.0,84,0.00,,,0.02,0.00,VWS V14.01,2013-08-30 05:37:00,
2013-08-29 23:42:00,60.8,56.3,30.03,North,-999,0.0,0.0,85,0.00,,,0.02,0.00,VWS V14.01,2013-08-30 05:42:00,
2013-08-29 23:47:00,60.8,56.6,30.03,North,-999,0.0,0.0,86,0.00,,,0.02,0.00,VWS V14.01,2013-08-30 05:47:00,
2013-08-29 23:52:00,60.9,56.4,30.03,North,-999,0.0,0.0,85,0.00,,,0.02,0.00,VWS V14.01,2013-08-30 05:52:00,
2013-08-29 23:57:00,60.7,56.5,30.03,North,-999,0.0,0.0,86,0.00,,,0.02,0.00,VWS V14.01,2013-08-30 05:57:00,